sat.trackr.live / text

‹ back to catalog

DROR 1

NORAD 64784 · 2025-148A

PAYLOAD ACTIVE UNKNOWN

§ Identity

Operator
Country
ISRA
Launch date
2025-07-13
Launch site
AFETR
Launch vehicle
Mass (kg)
RCS (m²)

Purposes: comms

External: N2YO · Heavens-Above · Gunter

§ Orbital elements

Epoch: 2026-09-19T22:05:06.895680Z

Period
1,436.11 min
Inclination
0.0223°
Eccentricity
0.0000513
Mean motion
1.00271164 rev/d
Perigee alt
35,784.6 km
Apogee alt
35,788.9 km
Semi-major
42,164.9 km
B*
0.0000e+0
RAAN
148.5118°
Arg perigee
71.6324°
Mean anomaly
105.9226°
Rev number
424

§ Raw data

DROR 11 64784U 25148A   26262.92021870  .00000000  00000+0  00000+0 0  99942 64784   0.0223 148.5118 0000513  71.6324 105.9226  1.00271164  4245

JSON: /api/v1/satellites/64784 · /tle

For live sub-satellite position, see the globe view (requires WebGL).

§ Visibility from observer

Set your observer location to see the next 7 days of passes ≥ 10°. The values pass through the URL so the page stays shareable.

No JS? Fill the form by hand. The geolocation button needs JavaScript.